| time (UTC) | temp F | wind direction | speed knots | gust knots | rain 1hr in | rain 24hr in | rain mn in | humidity % | barometer mb |
| 20260505034531 | 56 | 0 | 0.0 | 0.9 | 0.00 | 0.00 | 0.00 | 67 | 1015.4 |
| 20260505033030 | 57 | 0 | 0.0 | 0.9 | 0.00 | 0.00 | 0.00 | 68 | 1015.6 |
| 20260505031532 | 58 | 0 | 0.0 | 0.0 | 0.00 | 0.00 | 0.00 | 64 | 1015.7 |
| 20260505030031 | 59 | 0 | 0.0 | 0.9 | 0.00 | 0.00 | 0.00 | 62 | 1015.8 |
| 20260505024532 | 59 | 0 | 0.0 | 0.9 | 0.00 | 0.00 | 0.00 | 61 | 1015.8 |
| 20260505023030 | 60 | 0 | 0.0 | 0.0 | 0.00 | 0.00 | 0.00 | 59 | 1015.8 |
| 20260505021530 | 62 | 0 | 0.0 | 0.9 | 0.00 | 0.00 | 0.00 | 57 | 1015.6 |
| 20260505020032 | 64 | 0 | 0.0 | 1.7 | 0.00 | 0.00 | 0.00 | 53 | 1015.5 |
| 20260505014532 | 66 | 64 | 0.9 | 3.5 | 0.00 | 0.00 | 0.00 | 48 | 1015.3 |
| 20260505013031 | 67 | 0 | 0.0 | 7.0 | 0.00 | 0.00 | 0.00 | 47 | 1015.1 |
| 20260505011532 | 67 | 51 | 2.6 | 7.8 | 0.00 | 0.00 | 0.00 | 46 | 1015.0 |
| 20260505010030 | 68 | 67 | 1.7 | 9.6 | 0.00 | 0.00 | 0.00 | 46 | 1015.0 |
| 20260505004530 | 67 | 52 | 2.6 | 7.8 | 0.00 | 0.00 | 0.00 | 47 | 1014.6 |
| 20260505003031 | 66 | 0 | 0.0 | 3.5 | 0.00 | 0.00 | 0.00 | 47 | 1014.4 |
| 20260505001532 | 67 | 62 | 0.0 | 2.6 | 0.00 | 0.00 | 0.00 | 47 | 1014.4 |
| 20260505000030 | 68 | 37 | 0.0 | 0.9 | 0.00 | 0.00 | 0.00 | 44 | 1014.4 |
| 20260504234534 | 69 | 0 | 0.0 | 2.6 | 0.00 | 0.00 | 0.00 | 44 | 1014.3 |
| 20260504233033 | 69 | 56 | 0.9 | 3.5 | 0.00 | 0.00 | 0.00 | 42 | 1014.2 |
| 20260504231530 | 70 | 0 | 0.0 | 3.5 | 0.00 | 0.00 | 0.00 | 41 | 1014.0 |
| 20260504230034 | 71 | 32 | 1.7 | 6.1 | 0.00 | 0.00 | 0.00 | 39 | 1014.1 |
| 20260504224529 | 73 | 41 | 6.1 | 9.6 | 0.00 | 0.00 | 0.00 | 36 | 1014.1 |
| 20260504223029 | 74 | 43 | 3.5 | 7.8 | 0.00 | 0.00 | 0.00 | 35 | 1013.9 |
| 20260504221531 | 73 | 307 | 0.9 | 11.3 | 0.00 | 0.00 | 0.00 | 37 | 1014.0 |
| 20260504220034 | 74 | 57 | 5.2 | 10.4 | 0.00 | 0.00 | 0.00 | 34 | 1014.0 |
| 20260504214530 | 74 | 55 | 7.8 | 18.2 | 0.00 | 0.00 | 0.00 | 35 | 1014.0 |
| 20260504213032 | 74 | 326 | 6.1 | 13.9 | 0.00 | 0.00 | 0.00 | 36 | 1014.0 |
| 20260504211533 | 75 | 60 | 4.3 | 17.4 | 0.00 | 0.00 | 0.00 | 36 | 1013.9 |
| 20260504210035 | 75 | 80 | 4.3 | 16.5 | 0.00 | 0.00 | 0.00 | 36 | 1013.9 |
| 20260504204533 | 75 | 56 | 5.2 | 13.0 | 0.00 | 0.00 | 0.00 | 35 | 1014.0 |
| 20260504203049 | 75 | 62 | 7.0 | 15.6 | 0.00 | 0.00 | 0.00 | 36 | 1014.2 |
| 20260504201532 | 75 | 32 | 7.0 | 13.9 | 0.00 | 0.00 | 0.00 | 36 | 1014.2 |
| 20260504200032 | 75 | 27 | 5.2 | 12.2 | 0.00 | 0.00 | 0.00 | 35 | 1014.3 |
| 20260504194535 | 76 | 328 | 4.3 | 13.0 | 0.00 | 0.00 | 0.00 | 36 | 1014.5 |
| 20260504193034 | 76 | 73 | 3.5 | 13.0 | 0.00 | 0.00 | 0.00 | 39 | 1014.7 |
| 20260504191532 | 74 | 61 | 3.5 | 13.9 | 0.00 | 0.00 | 0.00 | 38 | 1014.8 |
| 20260504190030 | 74 | 281 | 4.3 | 9.6 | 0.00 | 0.00 | 0.00 | 39 | 1015.1 |
| 20260504184534 | 74 | 316 | 3.5 | 12.2 | 0.00 | 0.00 | 0.00 | 39 | 1015.3 |
| 20260504183035 | 73 | 307 | 4.3 | 8.7 | 0.00 | 0.00 | 0.00 | 40 | 1015.5 |
| 20260504181535 | 73 | 321 | 7.0 | 12.2 | 0.00 | 0.00 | 0.00 | 39 | 1015.7 |
| 20260504180032 | 73 | 288 | 5.2 | 9.6 | 0.00 | 0.00 | 0.00 | 42 | 1015.8 |
| 20260504174532 | 73 | 348 | 5.2 | 8.7 | 0.00 | 0.00 | 0.00 | 41 | 1015.9 |
| 20260504173030 | 71 | 307 | 4.3 | 8.7 | 0.00 | 0.00 | 0.00 | 43 | 1016.0 |
| 20260504171532 | 71 | 183 | 2.6 | 7.8 | 0.00 | 0.00 | 0.00 | 40 | 1016.2 |
| 20260504081534 | 40 | 0 | 0.0 | 0.0 | 0.00 | 0.00 | 0.00 | 93 | 1017.3 |
| 20260504044532 | 45 | 0 | 0.0 | 0.0 | 0.00 | 0.00 | 0.00 | 84 | 1017.4 |
| 20260504043031 | 45 | 0 | 0.0 | 0.0 | 0.00 | 0.00 | 0.00 | 82 | 1017.4 |
| 20260504041530 | 46 | 0 | 0.0 | 0.9 | 0.00 | 0.00 | 0.00 | 81 | 1017.4 |
| 20260504040032 | 47 | 57 | 0.0 | 0.0 | 0.00 | 0.00 | 0.00 | 77 | 1017.2 |